Blackpool, United Kingdom

4:31 PM GMT on February 25, 2017 (GMT +0000)
Blackpool

Weather History for EGNH - October, 2011

Change the Weather History Date:

Monday, October 17, 2011

  Actual Average Record
Temperature  
Mean Temperature 53 °F -  
Max Temperature 58 °F 51 °F 65 °F (2014)
Min Temperature 48 °F 43 °F 33 °F (2002)
Degree Days  
Heating Degree Days 12    
Growing Degree Days 3 (Base 50)    
Moisture  
Dew Point 47 °F    
Average Humidity 77    
Maximum Humidity 94    
Minimum Humidity 58    
Precipitation  
Precipitation 0.12 in - - ()
Sea Level Pressure  
Sea Level Pressure 29.73 in    
Wind  
Wind Speed 22 mph ()    
Max Wind Speed 38 mph    
Max Gust Speed 47 mph    
Visibility 5.7 miles    
Events Rain    
Averages and records for this station are not official NWS values.
T = Trace of Precipitation, MM = Missing Value Source: Averaged Metar Reports

Daily Weather History Graph

Daily Weather History Graph

Search for Another Location

Airport or City:

Trip Planner

Search our weather history database for the weather conditions in past years. The results will help you decide how hot, cold, wet, or windy it might be!

Date:

Astronomy

Oct. 17, 2011 Rise Set
Actual Time 7:42 AM BST 6:11 PM BST
Civil Twilight 7:06 AM BST 6:47 PM BST
Nautical Twilight 6:26 AM BST 7:27 PM BST
Astronomical Twilight 5:45 AM BST 8:08 PM BST
Moon 8:59 PM BST (10/17) 1:17 PM BST (10/17)
Length of Visible Light 11h 40m
Length of Day
10h 29m
Waning Gibbous, 76% of the Moon is Illuminated
Oct 17
Waning Gibbous
Oct 20
Last Quarter
Oct 26
New
Nov 2
First Quarter
Nov 10
Full

Hourly Weather History & Observations

Time (BST) Temp. Dew Point Humidity Pressure Visibility Wind Dir Wind Speed Gust Speed Precip Events Conditions
12:50 AM 54 °F 48 °F 72%  in - SW 21.9 mph - -  
3:50 AM 54 °F 48 °F 74%  in - SSW 20.7 mph - -  
6:20 AM 53.6 °F 50.0 °F 88% 29.95 in 6.2 mi SSW 20.7 mph - N/A   Scattered Clouds
6:50 AM 55 °F 49 °F 76%  in - SW 20.7 mph - -  
6:50 AM 55.4 °F 50.0 °F 82% 29.95 in 6.2 mi SW 20.7 mph - N/A   Mostly Cloudy
7:20 AM 53.6 °F 50.0 °F 88% 29.92 in 6.2 mi SSW 23.0 mph - N/A Rain Rain Showers
7:50 AM 55.4 °F 50.0 °F 82% 29.92 in 6.2 mi SSW 21.9 mph - N/A   Scattered Clouds
8:20 AM 55.4 °F 50.0 °F 82% 29.92 in 6.2 mi SSW 20.7 mph - N/A   Scattered Clouds
8:50 AM 55.4 °F 50.0 °F 82% 29.92 in 6.2 mi SSW 23.0 mph - N/A   Scattered Clouds
9:20 AM 55.4 °F 50.0 °F 82% 29.89 in 6.2 mi SW 25.3 mph - N/A   Scattered Clouds
9:50 AM 56 °F 48 °F 67%  in - SW 26.5 mph - -  
9:50 AM 55.4 °F 48.2 °F 77% 29.89 in 6.2 mi SW 25.3 mph - N/A   Scattered Clouds
10:20 AM 55.4 °F 48.2 °F 77% 29.89 in 6.2 mi SSW 18.4 mph 32.2 mph N/A   Scattered Clouds
10:50 AM 57.2 °F 50.0 °F 77% 29.86 in 6.2 mi SSW 24.2 mph - N/A   Scattered Clouds
11:20 AM 57.2 °F 50.0 °F 77% 29.83 in 6.2 mi SSW 24.2 mph - N/A   Scattered Clouds
12:20 PM 57.2 °F 50.0 °F 77% 29.83 in 6.2 mi South 21.9 mph - N/A   Scattered Clouds
12:50 PM 57 °F 49 °F 66%  in - SSW 25.3 mph - -  
12:50 PM 57.2 °F 50.0 °F 77% 29.77 in 6.2 mi South 24.2 mph - N/A   Scattered Clouds
1:20 PM 57.2 °F 51.8 °F 82% 29.77 in 6.2 mi South 21.9 mph - N/A Rain Light Rain Showers
1:50 PM 57.2 °F 50.0 °F 77% 29.74 in 6.2 mi South 26.5 mph - N/A   Scattered Clouds
2:20 PM 59.0 °F 51.8 °F 77% 29.71 in 6.2 mi SSW 28.8 mph - N/A   Scattered Clouds
2:50 PM 57.2 °F 50.0 °F 77% 29.68 in 6.2 mi SSW 31.1 mph - N/A   Scattered Clouds
3:20 PM 57.2 °F 50.0 °F 77% 29.68 in 6.2 mi South 31.1 mph - N/A Rain Light Rain Showers
3:50 PM 57.2 °F 50.0 °F 77% 29.62 in 6.2 mi SSW 28.8 mph - N/A Rain Light Rain Showers
4:20 PM 55.4 °F 51.8 °F 88% 29.59 in 6.2 mi SSW 32.2 mph - N/A Rain Light Rain
4:50 PM 57.2 °F 50.0 °F 77% 29.56 in 6.2 mi SSW 38.0 mph - N/A Rain Light Rain
5:20 PM 55.4 °F 50.0 °F 82% 29.56 in 6.2 mi SSW 35.7 mph 47.2 mph N/A   Mostly Cloudy
5:50 PM 55.4 °F 51.8 °F 88% 29.53 in 6.2 mi SSW 33.4 mph - N/A   Mostly Cloudy
6:20 PM 50.0 °F 48.2 °F 94% 29.59 in 3.1 mi West 27.6 mph - N/A Rain Light Rain
6:50 PM 49 °F 45 °F 80%  in - West 25.3 mph - -  
7:20 PM 50.0 °F 44.6 °F 82% 29.62 in 3.1 mi West 27.6 mph - N/A Rain Rain
7:50 PM 48.2 °F 44.6 °F 87% 29.62 in 3.1 mi West 24.2 mph - N/A Rain Rain
8:20 PM 50.0 °F 42.8 °F 76% 29.62 in 3.1 mi West 26.5 mph - N/A Rain Rain
8:50 PM 50.0 °F 42.8 °F 76% 29.62 in 5.6 mi West 27.6 mph - N/A   Scattered Clouds
9:20 PM 50.0 °F 41.0 °F 71% 29.65 in 5.6 mi West 23.0 mph - N/A Rain Light Rain
9:50 PM 49 °F 39 °F 58%  in - West 23.0 mph - -  
9:50 PM 50.0 °F 41.0 °F 71% 29.65 in 5.6 mi West 24.2 mph - N/A   Scattered Clouds
10:20 PM 50.0 °F 39.2 °F 66% 29.65 in 5.6 mi West 24.2 mph - N/A   Scattered Clouds
10:50 PM 50.0 °F 39.2 °F 66% 29.65 in 5.6 mi West 25.3 mph - N/A Rain Light Rain
11:20 PM 50.0 °F 39.2 °F 66% 29.65 in 5.6 mi West 21.9 mph - N/A Rain Light Rain
11:50 PM 50.0 °F 41.0 °F 71% 29.65 in 5.6 mi West 25.3 mph - N/A Rain Light Rain